Theta_e
328 330 326 321 322 322 325 325 323 325 324 322 324 323 323 328 328 327 331 334 335 337 338 338 335 335 330 328 328 330 332 334 334 328 332 332 331 330 330 328 328 329 329 330 328 329 329 329 328
329 330 323 316 322 327 326 323 325 325 324 327 326 329 330 333 331 331 333 334 335 337 338 337 334 331 328 329 328 329 331 332 333 332 332 332 331 330 330 329 328 328 329 329 329 328 329 327 328
329 326 320 318 319 325 328 326 324 325 322 324 329 328 331 333 330 333 333 334 336 337 337 336 334 329 327 329 330 328 330 331 334 333 334 332 330 330 330 329 328 328 328 328 328 328 328 328 327
327 324 318 322 327 324 325 324 324 326 324 325 326 329 328 331 331 333 333 334 336 337 337 335 333 329 327 327 329 330 328 330 333 333 332 332 330 329 328 329 329 328 328 328 327 328 327 327 327
326 321 325 324 325 325 324 323 323 326 325 325 326 329 330 331 332 332 333 335 335 337 337 335 332 328 327 327 328 329 329 328 330 331 333 329 326 329 325 327 329 328 328 328 328 327 323 323 324
322 323 331 328 330 323 324 323 323 325 324 324 328 327 328 331 332 334 333 334 335 337 337 335 331 329 328 327 328 329 329 329 329 328 330 329 328 326 326 326 327 328 328 328 328 326 323 323 322
326 325 332 332 332 327 323 320 324 324 324 326 326 329 328 330 332 334 334 333 334 336 336 334 331 330 328 326 329 327 327 327 329 329 329 328 326 327 326 325 324 327 328 327 326 323 323 322 322
322 324 332 329 331 332 321 321 321 324 325 322 326 328 327 328 332 335 335 334 334 334 335 335 332 331 329 327 327 326 328 327 327 327 328 327 326 327 327 326 325 324 326 326 321 321 322 322 322
321 324 327 329 330 330 322 322 319 318 325 327 329 326 327 331 332 335 335 335 335 335 334 334 333 331 330 327 325 326 328 328 327 326 326 327 326 326 327 326 326 325 323 323 321 318 319 322 322
323 322 323 324 325 327 322 320 321 321 323 326 330 330 328 330 331 332 334 333 333 335 336 334 334 333 331 329 327 327 327 329 328 327 326 325 326 326 327 326 325 325 325 323 320 318 318 319 320
323 321 321 326 325 323 325 323 323 321 321 320 325 331 328 329 328 329 332 333 332 335 336 336 334 333 332 331 329 328 328 327 328 328 327 325 324 326 326 326 326 325 325 324 324 320 318 317 318
326 325 323 323 321 322 324 323 326 320 323 320 322 328 328 327 328 328 328 331 332 333 334 335 335 333 333 332 331 329 328 328 327 328 328 326 325 322 325 325 325 324 324 323 324 324 322 318 317
324 323 323 321 321 321 320 323 324 323 321 320 324 329 328 327 329 330 330 329 329 331 332 332 332 333 333 333 332 331 329 328 328 328 328 327 326 325 322 323 324 324 324 323 323 323 325 323 320
319 320 321 322 321 321 322 321 323 321 319 319 320 325 327 327 328 328 329 330 330 330 330 330 331 331 332 332 332 332 331 330 328 327 328 328 328 326 325 323 321 322 324 323 323 322 322 323 323
321 323 321 322 322 322 319 322 322 319 319 319 318 316 318 324 329 328 330 329 329 330 330 329 329 331 331 331 330 332 332 331 330 329 328 328 329 327 326 325 323 321 320 321 322 322 322 322 321
322 320 322 319 321 321 319 317 316 316 317 318 316 314 312 312 315 318 323 328 329 329 329 328 328 328 329 330 330 331 331 332 332 331 330 329 329 328 327 326 325 324 321 322 322 322 322 322 321
319 319 321 321 319 319 321 322 318 315 315 315 313 312 312 312 312 315 317 317 318 319 323 327 328 328 328 328 329 331 331 331 331 331 330 330 329 328 328 327 326 325 324 322 323 324 323 323 323
320 322 321 322 318 318 319 317 316 315 315 314 313 313 312 312 313 316 319 318 318 318 318 319 323 326 328 327 328 330 330 331 331 331 331 330 330 329 329 328 327 326 325 324 323 324 324 323 323
316 320 320 319 318 318 316 315 314 314 312 311 311 312 313 314 315 317 318 317 317 317 318 319 320 322 326 326 326 328 329 329 330 330 330 330 330 330 329 329 327 327 326 325 324 323 323 323 322
320 321 320 318 317 317 316 317 315 315 315 312 312 312 311 312 311 311 314 315 315 314 315 317 319 320 323 325 326 326 327 328 328 328 328 328 329 329 329 329 328 327 326 325 324 323 321 321 321
320 319 319 319 317 316 312 312 311 310 310 310 310 311 310 310 310 309 310 312 312 312 313 314 317 319 320 322 324 324 325 327 327 327 327 328 327 328 328 328 328 327 326 325 325 323 323 321 320
319 317 319 320 320 319 313 317 311 310 310 310 309 307 307 306 305 305 306 308 310 312 313 314 314 315 317 320 323 324 324 324 326 326 326 327 327 327 327 327 327 327 326 325 325 324 323 322 321
316 316 318 318 318 316 315 316 312 309 311 310 308 306 305 305 305 306 304 307 309 310 312 315 316 314 316 320 323 324 324 324 325 324 325 325 325 326 326 326 326 325 325 325 325 324 323 322 321
316 317 317 316 315 317 313 314 311 311 309 308 307 306 307 309 303 302 305 306 307 308 309 310 310 311 316 319 323 324 324 324 324 325 325 325 325 325 325 326 325 325 325 324 324 324 323 322 321
317 318 311 312 317 314 310 312 312 309 307 306 307 306 305 307 304 303 304 306 308 309 310 311 311 311 311 311 310 315 321 324 324 324 324 325 325 325 325 325 325 325 325 325 324 324 323 322 321
316 316 311 310 314 311 311 314 310 309 308 308 307 305 305 306 303 303 305 306 305 305 306 308 309 309 309 309 309 309 309 308 309 316 323 325 325 325 325 325 325 325 325 325 324 324 323 322 321
314 319 311 310 306 309 310 309 308 308 309 308 308 308 308 303 303 305 304 303 302 302 302 303 304 304 305 306 306 307 307 306 306 306 306 306 311 321 325 324 324 324 325 325 324 323 323 323 322
313 311 317 317 313 312 311 311 312 309 308 306 308 309 303 304 305 304 301 301 301 301 301 300 300 300 301 302 302 303 303 304 305 305 305 305 305 305 306 317 323 323 324 323 324 324 324 324 323
315 315 314 312 310 312 309 308 304 308 308 307 305 304 302 306 305 301 299 299 299 299 299 298 299 299 299 300 300 301 302 302 302 303 303 303 304 304 305 306 309 320 324 323 322 323 323 324 324
311 314 313 313 310 311 311 311 306 305 306 306 307 305 303 305 303 299 298 298 298 297 297 296 297 297 297 297 298 298 298 299 300 300 300 301 301 302 302 305 306 310 316 321 323 322 323 323 323
Wind_Speed
34 22 7 4 4 5 1 3 0 3 2 1 2 3 4 2 3 3 1 13 21 25 23 20 16 15 15 17 18 20 20 16 14 11 13 14 14 15 14 14 13 14 14 14 13 12 11 14 14
31 15 4 2 5 3 3 2 4 2 4 7 4 2 4 1 2 2 14 12 23 25 23 19 16 14 15 16 18 19 20 16 14 11 13 14 13 13 15 14 13 13 13 13 12 11 11 11 10
20 8 3 4 4 4 4 3 5 3 5 2 3 3 1 1 1 10 4 18 25 24 22 19 15 14 15 16 18 17 21 18 13 11 13 13 13 12 13 13 13 13 13 12 11 10 10 11 10
13 8 4 4 2 1 3 5 5 5 1 3 3 4 1 1 3 6 9 20 26 23 21 18 15 15 15 16 17 18 18 16 15 12 13 13 13 12 12 12 12 12 12 12 11 9 9 10 9
7 3 4 4 3 3 0 4 5 4 3 2 2 3 2 1 4 6 15 21 24 23 20 17 15 15 15 16 16 17 17 17 14 13 12 9 12 13 12 11 11 11 11 11 11 10 10 9 8
5 3 4 2 4 4 1 4 3 3 3 3 4 5 2 1 5 11 18 21 20 22 20 17 15 15 14 14 14 16 15 17 16 14 12 11 10 10 8 11 10 10 10 11 11 9 8 7 7
4 3 3 0 3 3 1 4 2 4 4 3 7 4 2 2 7 15 20 19 17 18 19 18 17 15 15 15 14 14 14 15 16 14 12 12 12 11 8 9 10 11 10 9 10 10 9 7 5
4 4 2 2 0 2 2 2 1 3 4 2 1 3 2 5 14 18 18 17 17 18 19 19 18 17 15 15 15 15 14 13 13 14 13 11 11 12 11 10 9 10 12 11 12 12 11 9 6
2 4 2 4 5 2 2 2 1 0 4 2 2 1 2 15 18 21 18 17 16 18 20 21 20 20 18 17 17 16 16 15 15 13 14 14 13 13 12 13 10 10 11 12 11 12 12 11 10
4 3 9 4 3 2 2 2 2 2 1 1 2 1 5 20 22 23 20 15 17 18 22 23 23 22 21 20 19 19 19 18 18 16 14 16 17 15 14 14 13 12 11 12 11 11 12 12 12
3 5 4 3 0 2 1 2 1 5 3 5 5 4 7 11 17 20 22 24 24 22 22 24 25 25 25 24 23 23 22 21 21 19 18 17 18 21 19 17 17 16 13 14 14 13 14 15 15
1 3 4 3 0 2 1 4 2 4 3 3 0 6 8 9 14 20 23 28 25 25 26 26 26 27 28 28 27 26 26 25 25 24 22 22 20 21 24 21 20 19 20 18 17 17 16 16 16
2 2 3 2 2 3 3 4 2 5 4 1 5 6 8 8 13 21 24 23 25 27 29 29 28 29 30 30 31 30 29 29 28 27 26 25 24 22 22 24 24 23 22 23 23 22 20 19 19
1 1 1 1 3 3 3 3 3 6 1 6 5 7 8 9 19 17 19 27 27 29 31 30 31 31 31 31 34 34 32 31 30 30 30 28 28 27 24 23 25 27 27 25 25 25 24 24 23
1 1 3 2 3 4 4 5 9 6 4 5 7 7 6 11 17 22 27 29 29 31 31 30 32 33 33 33 34 35 35 34 34 34 32 31 31 31 29 28 26 28 27 28 27 27 27 26 27
1 4 2 3 4 2 6 6 8 5 5 10 11 8 7 9 18 25 26 29 30 30 32 33 33 34 35 36 36 37 37 36 36 36 35 34 33 33 32 32 32 29 28 29 30 30 30 30 30
3 3 5 4 5 0 6 3 7 3 6 9 9 9 9 9 13 19 19 21 24 29 33 33 34 36 36 37 38 37 36 36 38 38 38 37 36 35 35 36 35 33 31 32 33 34 33 34 34
5 2 1 2 3 2 5 8 10 11 5 10 9 10 9 9 15 22 22 20 18 17 21 28 31 32 34 35 34 35 35 37 38 39 40 39 38 37 36 37 37 36 34 34 35 34 35 35 35
4 1 3 3 4 3 7 8 11 12 6 10 11 9 11 14 20 27 29 24 20 19 19 19 23 28 28 31 31 31 37 37 39 41 40 38 38 39 39 39 38 37 37 38 37 36 36 36 34
3 1 3 6 3 2 8 16 17 17 16 11 13 14 13 9 8 16 23 25 26 26 24 22 21 22 24 28 31 29 22 30 37 37 38 39 40 40 40 40 40 39 38 38 38 36 30 32 28
11 15 4 7 6 4 7 9 11 7 4 6 10 16 9 10 11 9 15 27 24 19 19 21 24 22 21 24 27 24 26 22 23 30 34 38 38 38 39 39 40 39 38 37 39 37 35 27 25
6 6 5 4 5 4 5 8 5 6 7 5 10 8 9 9 8 9 13 20 16 13 10 12 15 19 20 21 25 28 28 24 35 32 33 33 33 33 35 37 38 39 39 35 37 37 37 32 26
5 5 7 5 4 4 3 4 5 4 5 11 9 7 8 8 7 9 9 8 1 3 5 1 5 11 14 17 21 25 28 29 31 25 25 28 30 30 30 32 34 36 37 40 38 35 36 34 32
4 4 2 2 2 7 8 7 3 4 5 4 4 6 5 5 6 7 11 14 13 13 15 14 14 14 7 4 10 19 23 25 26 29 28 29 29 31 32 33 34 35 36 37 39 39 35 36 34
5 4 0 1 3 6 0 4 5 9 8 7 8 10 6 4 6 7 7 12 15 16 14 13 12 14 11 9 6 1 10 17 22 25 27 28 30 31 33 32 34 35 36 37 37 37 36 35 35
10 7 5 8 5 4 1 7 6 5 8 9 7 8 6 4 4 6 7 10 13 14 14 13 13 12 10 9 8 6 6 7 9 13 18 23 26 29 31 31 32 32 34 36 36 36 36 35 35
4 11 5 5 1 2 4 7 8 9 10 6 4 5 5 6 5 6 8 9 10 12 13 12 10 9 9 9 9 8 8 9 11 13 14 17 20 24 28 29 32 33 33 35 36 34 33 34 35
6 6 4 3 2 5 4 5 7 8 8 7 5 6 4 6 7 5 6 8 9 11 10 11 11 10 10 10 10 10 10 11 13 14 15 16 18 20 22 26 30 32 33 32 33 33 34 34 34
7 7 4 5 5 4 2 5 7 9 5 8 9 7 8 7 7 5 4 8 8 9 11 12 12 12 12 12 12 11 12 13 14 15 16 17 18 19 20 21 24 28 32 33 31 33 34 34 34
13 6 7 4 4 4 3 12 1 4 5 5 0 2 5 7 8 5 5 4 6 7 9 11 12 13 14 13 12 13 14 15 16 17 19 20 21 20 21 21 21 24 27 31 32 31 30 33 32
Wind_Direction
345 349 351 43 61 67 60 238 5 142 133 295 67 146 182 98 159 207 169 156 161 161 162 164 161 155 151 147 148 148 142 136 141 133 130 130 125 122 121 115 117 121 118 113 106 96 103 102 95
343 349 27 79 86 77 275 248 178 202 155 138 84 59 39 45 67 92 131 163 167 164 164 167 167 163 159 153 151 155 146 140 153 144 131 132 132 129 130 128 127 126 127 121 113 101 98 119 104
347 359 70 81 105 148 175 200 171 178 159 178 100 69 84 291 356 173 162 166 169 169 171 171 173 171 166 160 157 157 156 142 150 153 139 137 139 137 135 136 136 135 136 131 122 114 106 114 113
351 12 40 75 79 193 188 169 176 150 139 84 131 76 323 252 162 194 178 170 171 174 176 178 178 177 173 167 164 162 171 156 150 162 153 147 150 149 145 144 145 145 146 145 138 129 122 119 123
22 51 43 72 338 315 260 162 165 148 140 120 154 186 147 66 164 184 172 173 176 179 180 184 184 184 182 176 173 169 174 167 166 177 164 158 149 161 160 160 152 154 156 158 157 158 146 135 135
24 78 45 39 327 322 329 153 153 149 161 150 96 131 224 276 186 169 175 178 183 184 185 188 189 187 185 182 182 180 182 181 180 172 181 182 167 179 182 176 176 166 171 171 173 173 166 161 167
102 76 158 24 298 314 332 143 178 169 154 225 155 129 265 213 189 175 174 179 190 193 193 193 193 194 192 191 192 194 192 193 193 183 186 194 199 196 204 203 200 191 189 188 188 187 187 186 181
105 90 121 179 200 290 329 199 112 156 215 76 127 186 216 199 168 170 174 182 191 197 203 203 202 201 202 202 202 200 198 201 202 203 199 202 210 198 211 229 221 225 209 207 202 199 199 204 198
127 74 184 215 162 215 293 159 37 304 117 56 337 161 333 155 160 167 176 187 196 202 209 210 210 210 208 208 206 205 206 210 212 218 220 214 213 209 215 226 229 238 234 235 225 218 212 212 217
95 146 200 215 210 166 158 160 161 108 104 211 296 25 135 156 166 173 183 191 200 205 209 213 216 218 216 215 213 212 215 215 218 223 223 222 222 224 222 223 231 236 248 250 248 242 235 229 229
154 194 204 210 117 12 108 135 182 130 225 217 207 180 151 165 175 185 195 202 205 209 213 216 219 221 223 221 219 220 220 221 222 226 229 226 224 225 228 229 229 231 241 252 252 247 246 244 243
199 229 180 205 166 64 355 317 279 181 201 126 89 160 166 176 193 198 207 214 217 220 222 222 224 225 225 227 227 227 226 226 227 228 228 230 228 225 228 233 237 240 241 246 253 254 254 254 254
187 253 209 265 301 303 341 268 256 269 217 232 79 148 189 205 216 219 223 228 228 229 231 231 231 232 231 230 231 232 232 233 234 234 233 233 234 233 232 234 236 240 239 243 251 259 258 256 258
265 219 306 323 278 287 232 310 145 257 194 227 200 202 209 216 223 233 235 237 234 237 239 237 236 237 236 237 236 235 237 238 238 240 239 238 239 239 238 238 241 241 243 244 250 256 259 259 262
147 174 339 236 203 242 168 281 226 234 293 270 222 226 230 233 242 237 241 240 240 242 247 244 242 240 239 241 242 241 241 241 242 244 245 243 243 243 243 244 244 245 244 246 248 251 256 262 261
70 70 110 250 196 246 146 254 262 196 210 254 271 271 246 248 241 249 250 251 251 252 251 251 249 244 242 242 243 244 245 245 247 248 249 248 247 247 247 248 250 252 252 249 249 249 252 255 258
0 238 213 327 217 321 185 256 270 123 195 255 274 274 273 274 259 256 255 254 256 256 253 251 249 246 246 245 244 244 246 248 250 251 251 252 251 249 250 251 253 254 254 251 252 253 252 256 259
221 275 358 251 335 50 278 259 271 287 244 257 256 272 275 263 264 269 270 266 264 261 259 256 253 251 248 245 242 242 246 250 251 251 252 252 252 252 251 251 253 255 254 253 251 252 253 256 262
100 266 265 287 282 295 261 274 266 274 274 264 271 253 259 259 260 271 276 273 270 264 258 252 247 251 241 236 233 232 236 241 248 251 253 253 254 254 253 252 251 252 251 254 254 252 252 255 257
148 207 286 282 272 249 293 286 282 268 261 237 252 260 251 256 269 262 267 274 278 278 266 255 248 246 242 238 237 230 238 244 249 253 254 255 256 255 253 254 253 253 251 251 252 249 243 250 250
233 245 222 254 320 280 315 275 252 280 255 246 243 250 254 247 261 272 271 276 279 277 270 253 247 247 246 245 239 234 235 245 248 248 252 255 254 255 255 254 254 254 254 245 249 247 240 240 247
237 190 194 265 331 262 41 293 259 267 284 278 274 255 253 266 265 264 272 277 285 278 272 258 247 243 243 241 235 235 228 224 249 250 260 261 261 258 257 257 256 253 252 246 246 250 245 236 238
212 163 195 202 233 307 205 254 274 335 284 265 270 313 279 272 276 285 266 267 95 87 85 85 224 228 232 237 235 239 238 245 258 260 263 266 268 267 263 262 259 256 251 253 251 242 244 237 236
169 208 216 110 180 264 206 186 246 216 214 282 288 322 4 19 24 38 81 107 100 91 83 84 87 83 94 202 231 239 247 256 259 266 268 271 268 268 266 265 261 260 256 251 254 254 241 243 239
178 141 222 343 211 232 285 199 261 259 238 227 275 290 300 338 83 68 57 72 78 74 71 71 69 65 60 64 69 255 259 265 268 273 276 277 277 271 271 269 263 262 261 259 255 250 248 241 238
191 190 163 196 200 259 352 237 250 233 268 256 256 269 289 254 119 101 82 78 73 68 62 59 55 50 38 33 28 10 343 323 300 286 281 278 276 278 280 275 270 267 265 263 260 251 247 245 241
203 210 164 100 3 10 231 289 287 280 289 308 258 278 295 147 146 120 102 85 70 62 54 47 45 38 22 9 357 350 334 320 315 306 300 295 286 282 280 277 275 272 266 263 261 250 246 245 244
169 160 191 175 230 245 255 264 236 303 288 308 313 234 145 142 135 137 109 90 72 60 53 44 37 30 13 1 352 346 339 331 324 319 316 309 302 294 284 278 275 271 267 265 263 253 251 249 246
180 213 199 174 183 202 274 258 222 237 274 283 296 269 179 165 157 154 108 78 69 60 48 39 31 23 15 9 3 356 352 346 341 335 329 325 318 313 303 292 279 274 269 263 259 256 255 250 249
224 213 200 185 233 252 242 254 210 250 260 202 336 59 163 171 161 145 108 93 68 56 43 39 32 27 15 8 5 3 358 352 348 344 339 334 330 325 318 311 299 289 278 271 257 252 249 249 248